Location: Bílinka
(49.3579°N, 14.3767°E)
Time: 06:06:59
(UTC+00:00)

PSLV R/B - Pass Details

Date: 21 April 2024
Orbit: 467 x 522 km, 97.7° (Epoch: 19 May)

Event Time Altitude Azimuth Distance (km) Brightness Sun altitude
Exits shadow 19:32:52 - 191° (S) 2,571 7.0 -13.3°
Reaches altitude 10° 19:35:02 10° 203° (SSW) 1,738 6.2 -13.6°
Maximum altitude 19:38:20 29° 264° (W) 980 5.6 -14.0°
Drops below altitude 10° 19:41:43 10° 326° (NW) 1,776 7.7 -14.5°
Sets 19:44:04 0° 338° (NNW) 2,677 8.5 -14.8°
